This demonstration page uses our WeatherBlox Daily Observations layout. Learn more.

Left ArrowRight Arrow

38.20091, -84.87328

Hourly Observations for July 3, 2015

Temp ( °F °C ) Dew Point ( °F °C ) Humidity (%) Winds ( mph kmh ) Pressure ( in mb ) Visibility ( mi km ) Precip ( " mm )
12:29 am 00:29 Cloudy 71 21.7 67 19.4 87 87 ENE 3 6 29.85 1011 10 16 0.00 0.00
12:53 am 00:53 Cloudy 71 21.7 68 20 90 90 ENE 3 6 29.85 1011 10 16 0.00 0.00
1:16 am 01:16 Cloudy with Heavy Rain 70 21.1 68 20 93 93 ENE 3 6 29.85 1011 2 3 0.13 3.30
1:22 am 01:22 Cloudy with Heavy Rain 70 21.1 68 20 93 93 NE 3 6 29.85 1011 2 3 0.15 3.81
1:31 am 01:31 Cloudy with Light Rain 70 21.1 68 20 93 93 NNE 3 6 29.85 1011 6 10 0.16 4.06
1:53 am 01:53 Cloudy 70 21.1 68 20 93 93 Calm 29.85 1011 10 16 0.16 4.06
2:03 am 02:03 Cloudy 70 21.1 68 20 93 93 NNE 3 6 29.85 1011 10 16 0.00 0.00
2:53 am 02:53 Cloudy 70 21.1 67 19.4 90 90 NE 6 9 29.83 1010 10 16 0.00 0.00
3:53 am 03:53 Cloudy 70 21.1 67 19.4 90 90 E 6 9 29.83 1010 10 16 0.00 0.00
4:14 am 04:14 Cloudy 70 21.1 67 19.4 90 90 NE 3 6 29.83 1010 10 16 0.00 0.00
4:51 am 04:51 Cloudy 70 21 66 19 88 88 ENE 6 9 29.83 1010 10 16 0.00 0.00
4:53 am 04:53 Cloudy 69 20.6 67 19.4 93 93 ENE 7 11 29.82 1010 10 16 0.00 0.00
5:00 am 05:00 Cloudy 69 20.6 67 19.4 93 93 ENE 7 11 29.83 1010 10 16 0.00 0.00
5:53 am 05:53 Cloudy 69 20.6 67 19.4 93 93 ENE 3 6 29.82 1010 10 16 0.00 0.00
6:30 am 06:30 Cloudy 69 20.6 67 19.4 93 93 VRB 6 9 29.83 1010 10 16 0.00 0.00
6:44 am 06:44 Cloudy 70 21.1 67 19.4 90 90 E 8 13 29.83 1010 10 16 0.00 0.00
6:53 am 06:53 Cloudy 70 21.1 67 19.4 90 90 E 7 11 29.84 1010 10 16 0.00 0.00
7:53 am 07:53 Cloudy 70 21.1 67 19.4 90 90 ENE 3 6 29.83 1010 10 16 0.00 0.00
8:53 am 08:53 Cloudy 71 21.7 67 19.4 87 87 E 6 9 29.84 1011 10 16 0.00 0.00
9:53 am 09:53 Cloudy 71 21.7 67 19.4 87 87 ENE 3 6 29.84 1010 10 16 0.00 0.00
10:53 am 10:53 Cloudy 72 22.2 67 19.4 84 84 Calm 29.85 1011 10 16 0.00 0.00
11:11 am 11:11 Cloudy 72 22.2 67 19.4 84 84 NE 3 6 29.85 1011 10 16 0.00 0.00
11:53 am 11:53 Cloudy 72 22.2 67 19.4 84 84 NE 5 7 29.85 1011 10 16 0.00 0.00
12:23 pm 12:23 Cloudy 73 22.8 68 20 84 84 NNE 5 7 29.85 1011 10 16 0.00 0.00
12:32 pm 12:32 Cloudy 75 23.9 69 20.6 82 82 NE 5 7 29.85 1011 10 16 0.00 0.00
12:53 pm 12:53 Cloudy 76 24.4 69 20.6 79 79 VRB 3 6 29.85 1011 10 16 0.00 0.00
1:18 pm 13:18 Cloudy 78 25.6 69 20.6 74 74 VRB 5 7 29.85 1011 10 16 0.00 0.00
1:37 pm 13:37 Cloudy 77 25 68 20 74 74 VRB 5 7 29.83 1010 10 16 0.00 0.00
1:53 pm 13:53 Mostly Cloudy 77 25 68 20 74 74 ESE 3 6 29.83 1010 10 16 0.00 0.00
2:30 pm 14:30 Partly Cloudy 79 26.1 69 20.6 72 72 NW 3 6 29.83 1010 10 16 0.00 0.00
2:53 pm 14:53 Partly Cloudy 77 25 68 20 74 74 NNW 7 11 29.82 1010 10 16 0.00 0.00
3:29 pm 15:29 Cloudy with Nearby Thunderstorms 77 25 69 20.6 77 77 NW 5 7 29.83 1010 10 16 0.00 0.03
3:45 pm 15:45 Partly Cloudy with Thunderstorms 77 25 69 20.6 77 77 W 3 6 29.83 1010 10 16 0.00 0.03
3:53 pm 15:53 Partly Cloudy with Thunderstorms 77 25 69 20.6 77 77 WSW 5 7 29.82 1010 10 16 0.00 0.03
4:10 pm 16:10 Mostly Cloudy with Nearby Thunderstorms 76 24.4 70 21.1 82 82 SW 6 9 29.80 1009 10 16 0.00 0.00
4:28 pm 16:28 Cloudy with Nearby Thunderstorms 73 22.8 69 20.6 87 87 S 7 11 29.83 1010 10 16 0.00 0.00
4:42 pm 16:42 Partly Cloudy 74 23.3 70 21.1 88 88 SSE 7 11 29.80 1009 10 16 0.00 0.00
4:53 pm 16:53 Mostly Cloudy 74 23.3 70 21.1 88 88 S 6 9 29.81 1010 10 16 0.00 0.00
5:00 pm 17:00 Mostly Cloudy with Nearby Thunderstorms 75 23.9 70 21.1 84 84 SSW 6 9 29.80 1009 10 16 0.00 0.00
5:05 pm 17:05 Mostly Cloudy with Nearby Thunderstorms 74 23.3 70 21.1 88 88 SSW 8 13 29.80 1009 10 16 0.00 0.00
5:17 pm 17:17 Cloudy with Heavy Rain 73 22.8 70 21.1 90 90 W 3 6 29.83 1010 1 2 0.07 1.78
5:23 pm 17:23 Cloudy with Rain 72 22.2 69 20.6 91 91 Calm 29.83 1010 1 1 0.14 3.56
5:33 pm 17:33 Mostly Cloudy with Light Rain 73 22.8 69 20.6 87 87 E 5 7 29.80 1009 1 2 0.18 4.57
5:35 pm 17:35 Mostly Cloudy with Light Rain 73 22.8 69 20.6 87 87 E 3 6 29.80 1009 4 6 0.18 4.57
5:53 pm 17:53 Mostly Cloudy 74 23.3 69 20.6 85 85 Calm 29.82 1010 10 16 0.18 4.57
6:02 pm 18:02 Partly Cloudy 74 23.3 69 20.6 85 85 Calm 29.80 1009 10 16 0.00 0.00
6:53 pm 18:53 Mostly Sunny 74 23.3 70 21.1 88 88 SW 6 9 29.82 1010 10 16 0.00 0.00
7:49 pm 19:49 Mostly Cloudy 73 23 70 21 89 89 Calm 29.80 1009 10 16 0.00 0.00
7:53 pm 19:53 Cloudy with Nearby Thunderstorms 74 23.3 70 21.1 88 88 Calm 29.82 1010 10 16 0.00 0.00
8:05 pm 20:05 Cloudy with Nearby Thunderstorms 71 21.7 67 19.4 87 87 N 13 20 29.83 1010 10 16 0.00 0.00
8:14 pm 20:14 Cloudy with Thunderstorms 70 21.1 66 18.9 87 87 NNE 9 15 29.83 1010 8 13 0.00 0.00
8:20 pm 20:20 Cloudy with Strong Thunderstorms 69 20.6 66 18.9 90 90 N 8 13 29.83 1010 2 3 0.13 3.30
8:24 pm 20:24 Cloudy with Strong Thunderstorms 69 20.6 66 18.9 90 90 NNW 9 15 29.85 1011 1 2 0.32 8.13
8:31 pm 20:31 Cloudy with Strong Thunderstorms 68 20 66 18.9 93 93 VRB 3 6 29.83 1010 0 0 0.63 16.00
8:39 pm 20:39 Cloudy with Strong Thunderstorms 68 20 66 18.9 93 93 Calm 29.85 1011 1 1 0.75 19.05
8:49 pm 20:49 Cloudy with Strong Thunderstorms 68 20 66 19 94 94 Calm 29.83 1010 1 2 0.86 21.84
8:53 pm 20:53 Cloudy with Thunderstorms 68 20 66 18.9 93 93 Calm 29.85 1011 2 2 0.89 22.61
8:59 pm 20:59 Cloudy with Heavy Rain 68 20 66 18.9 93 93 Calm 29.85 1011 1 2 0.05 1.27
9:07 pm 21:07 Cloudy with Heavy Rain 68 20 66 18.9 93 93 S 3 6 29.85 1011 1 1 0.15 3.81
9:11 pm 21:11 Cloudy with Heavy Rain 68 20 66 18.9 93 93 SSE 3 6 29.83 1010 1 2 0.17 4.32
9:18 pm 21:18 Cloudy with Light Rain 68 20 66 18.9 93 93 S 3 6 29.83 1010 3 5 0.17 4.32
9:53 pm 21:53 Mostly Cloudy with Light Rain 68 20 66 18.9 93 93 Calm 29.85 1011 8 13 0.20 5.08
10:51 pm 22:51 Partly Cloudy 66 19 66 19 100 100 Calm 29.85 1011 10 16 0.00 0.03
10:53 pm 22:53 Mostly Cloudy 68 20 66 18.9 93 93 Calm 29.87 1012 10 16 0.00 0.03
11:37 pm 23:37 Cloudy 68 20 66 18.9 93 93 Calm 29.85 1011 9 14 0.00 0.00
11:53 pm 23:53 Mostly Cloudy 68 20 66 18.9 93 93 Calm 29.88 1012 8 13 0.00 0.00

Powered by AerisWeather